Location: Joffre
(52.3362°N, 113.5373°W)
Time: 13:06:47
(UTC+00:00)

Envisat - Pass Details

Date: 04 December 2021
Orbit: 764 x 766 km, 98.2° (Epoch: 23 January)

Event Time Altitude Azimuth Distance (km) Brightness Sun altitude
Rises 00:08:09 0° 184° (S) 3,222 6.7 -6.6°
Reaches altitude 10° 00:10:33 10° 191° (S) 2,300 6.1 -6.9°
Maximum altitude 00:15:22 43° 263° (W) 1,076 4.4 -7.6°
Drops below altitude 10° 00:20:13 10° 334° (NNW) 2,317 5.5 -8.3°
Sets 00:22:40 0° 341° (NNW) 3,248 6.2 -8.6°
